Haleyville, AL

1:48 AM CST on November 19, 2017 (GMT -0600)
Haleyville

Weather History for K1M4 - April, 2014

Change the Weather History Date:

Sunday, April 20, 2014

  Actual Average (KJFX) Record (KJFX)
Temperature  
Mean Temperature 61 °F -  
Max Temperature 79 °F 76 °F 89 °F (1964)
Min Temperature 43 °F 47 °F 28 °F (1983)
Degree Days  
Heating Degree Days 4    
Growing Degree Days 11 (Base 50)    
Moisture  
Dew Point 45 °F    
Average Humidity 65    
Maximum Humidity 100    
Minimum Humidity 28    
Precipitation  
Precipitation 0.00 in - - ()
Sea Level Pressure  
Sea Level Pressure 30.23 in    
Wind  
Wind Speed 2 mph (ESE)    
Max Wind Speed 8 mph    
Max Gust Speed -    
Visibility 10 miles    
Events      
Averages and records for this station are not official NWS values.
T = Trace of Precipitation, MM = Missing Value Source: NWS Daily Summary

Daily Weather History Graph

Daily Weather History Graph

Search for Another Location

Airport or City:

Trip Planner

Search our weather history database for the weather conditions in past years. The results will help you decide how hot, cold, wet, or windy it might be!

Date:

Astronomy

Apr. 20, 2014 Rise Set
Actual Time 6:13 AM CDT 7:26 PM CDT
Civil Twilight 5:46 AM CDT 7:52 PM CDT
Nautical Twilight 5:15 AM CDT 8:23 PM CDT
Astronomical Twilight 4:43 AM CDT 8:55 PM CDT
Moon 12:00 AM CDT (4/20) 10:38 AM CDT (4/20)
Length of Visible Light 14h 05m
Length of Day
13h 12m
Waning Gibbous, 68% of the Moon is Illuminated
Apr 20
Waning Gibbous
Apr 22
Last Quarter
Apr 29
New
May 6
First Quarter
May 14
Full

Hourly Weather History & Observations

Time (CDT) Temp. Windchill Dew Point Humidity Pressure Visibility Wind Dir Wind Speed Gust Speed Precip Events Conditions
12:56 AM 46.9 °F - 43.9 °F 89% 30.22 in 10.0 mi Calm Calm - N/A   Clear
1:56 AM 45.0 °F - 43.0 °F 93% 30.22 in 10.0 mi Calm Calm - N/A   Clear
2:56 AM 45.0 °F - 43.9 °F 96% 30.22 in 10.0 mi Calm Calm - N/A   Clear
3:56 AM 43.0 °F 41.3 °F 43.0 °F 100% 30.23 in 9.0 mi East 3.5 mph - N/A   Clear
4:56 AM 45.0 °F 43.5 °F 43.0 °F 93% 30.24 in 10.0 mi Variable 3.5 mph - N/A   Clear
5:56 AM 46.9 °F - 43.0 °F 86% 30.26 in 10.0 mi ESE 3.5 mph - N/A   Clear
6:56 AM 48.9 °F - 43.9 °F 83% 30.28 in 10.0 mi ESE 3.5 mph - N/A   Clear
7:56 AM 55.9 °F - 45.9 °F 69% 30.30 in 10.0 mi ESE 5.8 mph - N/A   Clear
8:56 AM 59.9 °F - 43.9 °F 55% 30.31 in 10.0 mi Variable 6.9 mph - N/A   Clear
9:56 AM 63.9 °F - 45.9 °F 52% 30.31 in 10.0 mi SSE 8.1 mph - N/A   Clear
10:56 AM 68.0 °F - 45.9 °F 45% 30.31 in 10.0 mi SE 6.9 mph - N/A   Clear
12:56 PM 72.9 °F - 43.9 °F 35% 30.26 in 10.0 mi Calm Calm - N/A   Clear
1:56 PM 75.9 °F - 43.9 °F 32% 30.23 in 10.0 mi Variable 5.8 mph - N/A   Clear
2:56 PM 77.0 °F - 43.9 °F 31% 30.21 in 10.0 mi South 5.8 mph - N/A   Clear
3:56 PM 77.9 °F - 43.0 °F 29% 30.19 in 10.0 mi NW 4.6 mph - N/A   Clear
4:56 PM 79.0 °F - 43.9 °F 29% 30.18 in 10.0 mi NNE 5.8 mph - N/A   Clear
5:56 PM 77.0 °F - 41.9 °F 28% 30.18 in 10.0 mi NE 5.8 mph - N/A   Clear
6:56 PM 72.0 °F - 47.8 °F 42% 30.17 in 10.0 mi Calm Calm - N/A   Clear
7:56 PM 63.0 °F - 52.0 °F 67% 30.19 in 10.0 mi Calm Calm - N/A   Clear
8:56 PM 57.9 °F - 50.0 °F 75% 30.20 in 10.0 mi Calm Calm - N/A   Clear
9:56 PM 55.9 °F - 50.0 °F 80% 30.20 in 10.0 mi Calm Calm - N/A   Clear
10:56 PM 52.9 °F - 48.9 °F 86% 30.20 in 10.0 mi Calm Calm - N/A   Clear
11:56 PM 50.9 °F - 48.9 °F 93% 30.19 in 10.0 mi Calm Calm - N/A   Clear